Rockwood, MI

7:42 AM EST on February 20, 2017 (GMT -0500)
Grosse Ile Municipal

Weather History for KONZ - October, 2013

Change the Weather History Date:

Sunday, October 6, 2013

  Actual Average (KDTW) Record (KDTW)
Temperature  
Mean Temperature 64 °F -  
Max Temperature 71 °F 64 °F 91 °F (1963)
Min Temperature 57 °F 44 °F 30 °F (1935)
Degree Days  
Heating Degree Days 1    
Growing Degree Days 14 (Base 50)    
Moisture  
Dew Point 63 °F    
Average Humidity 87    
Maximum Humidity 94    
Minimum Humidity 78    
Precipitation  
Precipitation 0.45 in - - ()
Sea Level Pressure  
Sea Level Pressure 29.76 in    
Wind  
Wind Speed 9 mph (SSW)    
Max Wind Speed 17 mph    
Max Gust Speed 28 mph    
Visibility 9 miles    
Events Rain    
Averages and records for this station are not official NWS values.
T = Trace of Precipitation, MM = Missing Value Source: NWS Daily Summary

Daily Weather History Graph

Daily Weather History Graph

Search for Another Location

Airport or City:

Trip Planner

Search our weather history database for the weather conditions in past years. The results will help you decide how hot, cold, wet, or windy it might be!

Date:

Astronomy

Oct. 06, 2013 Rise Set
Actual Time 7:35 AM EDT 7:05 PM EDT
Civil Twilight 7:07 AM EDT 7:33 PM EDT
Nautical Twilight 6:35 AM EDT 8:05 PM EDT
Astronomical Twilight 6:02 AM EDT 8:38 PM EDT
Moon 9:20 AM EDT (10/6) 8:01 PM EDT (10/6)
Length of Visible Light 12h 25m
Length of Day
11h 29m
Waxing Crescent, 3% of the Moon is Illuminated
Oct 6
Waxing Crescent
Oct 11
First Quarter
Oct 18
Full
Oct 26
Last Quarter
Nov 3
New

Hourly Weather History & Observations

Time (EDT) Temp. Dew Point Humidity Pressure Visibility Wind Dir Wind Speed Gust Speed Precip Events Conditions
12:14 AM 69.8 °F 66.2 °F 88% 29.87 in 7.0 mi SE 5.8 mph - N/A   Overcast
12:34 AM 69.8 °F 66.2 °F 88% 29.86 in 7.0 mi SE 6.9 mph - N/A   Overcast
12:54 AM 69.8 °F 66.2 °F 88% 29.85 in 7.0 mi SE 8.1 mph - N/A   Mostly Cloudy
1:14 AM 69.8 °F 66.2 °F 88% 29.84 in 5.0 mi SE 4.6 mph - N/A   Clear
1:34 AM 69.8 °F 66.2 °F 88% 29.85 in 5.0 mi South 5.8 mph - N/A   Scattered Clouds
1:54 AM 69.8 °F 66.2 °F 88% 29.86 in 5.0 mi South 10.4 mph - N/A   Overcast
2:14 AM 69.8 °F 66.2 °F 88% 29.86 in 7.0 mi South 9.2 mph - N/A   Overcast
2:34 AM 69.8 °F 66.2 °F 88% 29.85 in 7.0 mi South 11.5 mph - N/A   Mostly Cloudy
2:54 AM 69.8 °F 66.2 °F 88% 29.85 in 7.0 mi South 12.7 mph - N/A   Scattered Clouds
3:14 AM 69.8 °F 66.2 °F 88% 29.85 in 10.0 mi SSW 12.7 mph 17.3 mph N/A   Scattered Clouds
3:34 AM 69.8 °F 66.2 °F 88% 29.84 in 10.0 mi South 10.4 mph - N/A   Mostly Cloudy
3:54 AM 69.8 °F 66.2 °F 88% 29.84 in 10.0 mi South 11.5 mph - N/A   Scattered Clouds
4:14 AM 69.8 °F 66.2 °F 88% 29.84 in 10.0 mi SSW 11.5 mph - N/A   Scattered Clouds
4:34 AM 69.8 °F 66.2 °F 88% 29.83 in 10.0 mi South 10.4 mph - N/A   Scattered Clouds
4:54 AM 69.8 °F 66.2 °F 88% 29.83 in 10.0 mi SSW 6.9 mph - N/A   Scattered Clouds
5:14 AM 69.8 °F 64.4 °F 83% 29.82 in 10.0 mi SSW 8.1 mph - N/A   Clear
5:34 AM 69.8 °F 66.2 °F 88% 29.82 in 10.0 mi SSW 10.4 mph - N/A Rain Rain
5:54 AM 69.8 °F 64.4 °F 83% 29.82 in 10.0 mi SSW 9.2 mph - 0.01 in Rain Light Rain
6:14 AM 68.0 °F 64.4 °F 88% 29.82 in 10.0 mi SSW 6.9 mph - N/A Rain Light Rain
6:34 AM 69.8 °F 64.4 °F 83% 29.82 in 10.0 mi South 10.4 mph - 0.02 in Rain Light Rain
6:54 AM 69.8 °F 66.2 °F 88% 29.82 in 10.0 mi South 9.2 mph - 0.04 in Rain Rain
7:14 AM 69.8 °F 66.2 °F 88% 29.81 in 10.0 mi SSE 11.5 mph - 0.01 in   Drizzle
7:34 AM 68.0 °F 66.2 °F 94% 29.80 in 10.0 mi SSE 12.7 mph 18.4 mph 0.01 in   Mostly Cloudy
7:54 AM 68.0 °F 64.4 °F 88% 29.80 in 10.0 mi SSE 12.7 mph 18.4 mph 0.01 in   Drizzle
8:14 AM 68.0 °F 64.4 °F 88% 29.80 in 10.0 mi South 15.0 mph - N/A Rain Light Rain
8:34 AM 68.0 °F 64.4 °F 88% 29.80 in 10.0 mi South 17.3 mph 24.2 mph N/A   Scattered Clouds
8:54 AM 68.0 °F 64.4 °F 88% 29.80 in 10.0 mi South 17.3 mph 21.9 mph N/A Rain Rain
9:14 AM 68.0 °F 64.4 °F 88% 29.80 in 10.0 mi South 17.3 mph 23.0 mph 0.01 in Rain Light Rain
9:34 AM 68.0 °F 64.4 °F 88% 29.79 in 10.0 mi South 12.7 mph - 0.01 in Rain Light Rain
9:54 AM 68.0 °F 64.4 °F 88% 29.78 in 10.0 mi South 11.5 mph - 0.01 in   Light Drizzle
10:14 AM 68.0 °F 64.4 °F 88% 29.77 in 10.0 mi SSW 11.5 mph - N/A   Scattered Clouds
10:34 AM 69.8 °F 64.4 °F 83% 29.76 in 10.0 mi South 8.1 mph - N/A Rain Light Rain
10:55 AM 68.0 °F 64.4 °F 88% 29.77 in 10.0 mi South 12.7 mph - N/A   Scattered Clouds
11:14 AM 68.0 °F 64.4 °F 88% 29.77 in 10.0 mi South 12.7 mph - N/A Rain Light Rain
11:34 AM 69.8 °F 64.4 °F 83% 29.77 in 10.0 mi South 12.7 mph - N/A Rain Light Rain
11:54 AM 68.0 °F 64.4 °F 88% 29.77 in 10.0 mi SSE 10.4 mph - N/A Rain Light Rain
12:14 PM 69.8 °F 64.4 °F 83% 29.77 in 10.0 mi South 10.4 mph - N/A Rain Light Rain
12:35 PM 69.8 °F 66.2 °F 88% 29.77 in 10.0 mi South 13.8 mph - 0.01 in Rain Light Rain
12:54 PM 69.8 °F 66.2 °F 88% 29.76 in 10.0 mi South 16.1 mph - 0.01 in   Light Drizzle
1:14 PM 69.8 °F 64.4 °F 83% 29.76 in 10.0 mi South 12.7 mph 18.4 mph N/A Rain Light Rain
1:34 PM 69.8 °F 64.4 °F 83% 29.75 in 10.0 mi SSW 10.4 mph - N/A Rain Light Rain
1:54 PM 69.8 °F 64.4 °F 83% 29.73 in 10.0 mi South 8.1 mph - N/A Rain Light Rain
2:14 PM 69.8 °F 64.4 °F 83% 29.73 in 10.0 mi South 13.8 mph - 0.01 in   Scattered Clouds
2:34 PM 71.6 °F 64.4 °F 78% 29.70 in 10.0 mi South 12.7 mph - 0.01 in   Scattered Clouds
2:54 PM 69.8 °F 64.4 °F 83% 29.70 in 10.0 mi South 8.1 mph - 0.01 in   Scattered Clouds
3:14 PM 69.8 °F 66.2 °F 88% 29.69 in 10.0 mi South 8.1 mph - N/A   Scattered Clouds
3:34 PM 71.6 °F 66.2 °F 83% 29.68 in 10.0 mi South 6.9 mph - N/A   Scattered Clouds
3:54 PM 71.6 °F 66.2 °F 83% 29.68 in 10.0 mi SSE 8.1 mph - N/A   Scattered Clouds
4:14 PM 71.6 °F 66.2 °F 83% 29.68 in 10.0 mi SSE 6.9 mph - N/A   Clear
4:34 PM 69.8 °F 66.2 °F 88% 29.67 in 10.0 mi SSE 5.8 mph - N/A   Scattered Clouds
4:54 PM 69.8 °F 64.4 °F 83% 29.66 in 10.0 mi SSE 8.1 mph - N/A   Overcast
5:14 PM 69.8 °F 64.4 °F 83% 29.65 in 10.0 mi South 15.0 mph 19.6 mph N/A Rain Light Rain
5:34 PM 69.8 °F 66.2 °F 88% 29.64 in 10.0 mi SSW 15.0 mph - 0.01 in Rain Light Rain
5:54 PM 69.8 °F 64.4 °F 83% 29.65 in 5.0 mi SSW 8.1 mph - 0.08 in Rain Heavy Rain
6:14 PM 66.2 °F 62.6 °F 88% 29.68 in 7.0 mi WSW 11.5 mph 27.6 mph 0.19 in Rain Heavy Rain
6:34 PM 64.4 °F 60.8 °F 88% 29.68 in 10.0 mi West 6.9 mph - 0.21 in Rain Light Rain
6:54 PM 62.6 °F 60.8 °F 94% 29.68 in 10.0 mi West 8.1 mph - 0.21 in Rain Rain
7:14 PM 62.6 °F 60.8 °F 94% 29.68 in 10.0 mi WSW 3.5 mph - N/A Rain Light Rain
7:34 PM 62.6 °F 60.8 °F 94% 29.69 in 10.0 mi SW 5.8 mph - N/A   Overcast
7:54 PM 62.6 °F 59.0 °F 88% 29.70 in 10.0 mi WSW 9.2 mph 17.3 mph N/A   Overcast
8:14 PM 62.6 °F 59.0 °F 88% 29.72 in 10.0 mi WSW 11.5 mph - N/A   Drizzle
8:35 PM 60.8 °F 57.2 °F 88% 29.71 in 10.0 mi WSW 10.4 mph - 0.01 in Rain Rain
8:54 PM 60.8 °F 57.2 °F 88% 29.71 in 10.0 mi WSW 4.6 mph - 0.01 in Rain Light Rain
9:14 PM 60.8 °F 57.2 °F 88% 29.71 in 10.0 mi SW 6.9 mph - N/A   Overcast
9:34 PM 60.8 °F 57.2 °F 88% 29.72 in 10.0 mi SW 8.1 mph - N/A   Overcast
9:54 PM 60.8 °F 57.2 °F 88% 29.72 in 10.0 mi WSW 5.8 mph - N/A Rain Light Rain
10:14 PM 60.8 °F 55.4 °F 82% 29.74 in 10.0 mi SW 9.2 mph - N/A Rain Light Rain
10:34 PM 59.0 °F 55.4 °F 88% 29.74 in 10.0 mi WSW 6.9 mph - 0.01 in Rain Light Rain
10:54 PM 57.2 °F 55.4 °F 94% 29.75 in 10.0 mi SW 6.9 mph - 0.02 in Rain Light Rain
11:14 PM 57.2 °F 55.4 °F 94% 29.73 in 10.0 mi WSW 3.5 mph - 0.02 in Rain Light Rain
11:34 PM 57.2 °F 55.4 °F 94% 29.72 in 10.0 mi SW 5.8 mph - 0.03 in Rain Light Rain
11:54 PM 57.2 °F 55.4 °F 94% 29.72 in 10.0 mi SW 4.6 mph - 0.04 in Rain Light Rain